sat.trackr.live / text

‹ back to catalog

STARLINK-3738

NORAD 52117 · 2022-029AF

PAYLOAD ACTIVE UNKNOWN

§ Identity

Operator
Country
US
Launch date
2022-03-19
Launch site
AFETR
Launch vehicle
Mass (kg)
RCS (m²)

Purposes: comms

External: N2YO · Heavens-Above · Gunter

§ Orbital elements

Epoch: 2026-09-19T01:18:37.954080Z

Period
93.85 min
Inclination
53.1604°
Eccentricity
0.0001181
Mean motion
15.34388051 rev/d
Perigee alt
461.9 km
Apogee alt
463.5 km
Semi-major
6,840.9 km
B*
-4.0369e-7
RAAN
276.1224°
Arg perigee
83.8673°
Mean anomaly
276.2464°
Rev number
25,019

§ Raw data

STARLINK-37381 52117U 22029AF  26262.05460595 -.00000390  00000+0 -40369-6 0  99942 52117  53.1604 276.1224 0001181  83.8673 276.2464 15.34388051250193

JSON: /api/v1/satellites/52117 · /tle

For live sub-satellite position, see the globe view (requires WebGL).

§ Visibility from observer

Set your observer location to see the next 7 days of passes ≥ 10°. The values pass through the URL so the page stays shareable.

No JS? Fill the form by hand. The geolocation button needs JavaScript.